This demonstration page uses our WeatherBlox Daily Observations layout. Learn more.

Left ArrowRight Arrow

39.01783, -85.05884

Hourly Observations for August 29, 2022

Temp ( °F °C ) Dew Point ( °F °C ) Humidity (%) Winds ( mph kmh ) Pressure ( in mb ) Visibility ( mi km ) Precip ( " mm )
12:52 am 00:52 Mostly Clear 77 25 70 21.1 79 79 S 7 11 29.93 1014 10 16 0.00 0.00
1:52 am 01:52 Mostly Clear 77 25 70 21.1 79 79 S 9 15 29.92 1013 10 16 0.00 0.00
2:52 am 02:52 Partly Cloudy 77 25 70 21.1 79 79 SSW 9 15 29.94 1014 10 16 0.00 0.00
3:52 am 03:52 Mostly Clear 76 24.4 70 21.1 82 82 S 9 15 29.94 1014 10 16 0.00 0.00
4:52 am 04:52 Partly Cloudy 75 23.9 70 21.1 84 84 SW 7 11 29.95 1014 10 16 0.00 0.00
5:52 am 05:52 Mostly Clear 75 23.9 71 21.7 88 88 S 7 11 29.95 1014 10 16 0.00 0.00
6:52 am 06:52 Partly Cloudy 74 23.3 71 21.7 91 91 SSW 7 11 29.97 1015 10 16 0.00 0.00
7:52 am 07:52 Mostly Cloudy 75 23.9 71 21.7 88 88 S 8 13 29.98 1015 10 16 0.00 0.00
8:52 am 08:52 Mostly Cloudy 76 24.4 72 22.2 88 88 SSW 9 15 29.99 1016 10 16 0.00 0.00
9:52 am 09:52 Mostly Cloudy 79 26.1 73 22.8 82 82 SSW 9 15 29.99 1016 9 14 0.00 0.00
10:52 am 10:52 Mostly Cloudy 82 27.8 74 23.3 77 77 SSW 13 20 30.01 1016 9 14 0.00 0.00
11:52 am 11:52 Mostly Cloudy 83 28.3 74 23.3 74 74 SSW 8 13 30.01 1016 10 16 0.00 0.00
12:52 pm 12:52 Mostly Cloudy 87 30.6 74 23.3 65 65 SW 8 13 29.98 1015 10 16 0.00 0.00
1:52 pm 13:52 Mostly Cloudy 87 30.6 72 22.2 61 61 SSW 12 19 29.97 1015 10 16 0.00 0.00
2:52 pm 14:52 Mostly Cloudy 88 31.1 73 22.8 61 61 S 12 19 29.95 1014 10 16 0.00 0.00
3:12 pm 15:12 Mostly Cloudy with Nearby Thunderstorms 87 30.6 72 22.2 61 61 S 18 30 29.92 1013 10 16 0.00 0.00
3:39 pm 15:39 Cloudy with Thunderstorms 83 28.3 70 21.1 65 65 S 12 19 29.92 1013 10 16 0.00 0.00
3:48 pm 15:48 Cloudy with Strong Thunderstorms 81 27 72 22 74 74 S 17 28 29.93 1013 3 4 0.01 0.13
3:56 pm 15:56 Cloudy with Thunderstorms 76 24.4 73 22.8 91 91 SSW 13 20 29.94 1014 4 6 0.11 2.79
4:03 pm 16:03 Cloudy with Thunderstorms 76 24.4 73 22.8 91 91 S 14 22 29.96 1014 10 16 0.12 3.05
4:11 pm 16:11 Cloudy with Nearby Thunderstorms 75 23.9 72 22.2 90 90 S 12 19 29.94 1014 10 16 0.12 3.05
4:52 pm 16:52 Cloudy with Thunderstorms 73 22.8 70 21.1 90 90 SSW 16 26 29.96 1015 10 16 0.12 3.05
5:08 pm 17:08 Cloudy with Nearby Thunderstorms 71 21.7 69 20.6 93 93 SSW 20 31 29.97 1015 10 16 0.01 0.13
5:17 pm 17:17 Cloudy with Light Rain 71 21.7 68 20 90 90 SSW 20 31 29.96 1015 10 16 0.01 0.13
5:45 pm 17:45 Cloudy with Nearby Thunderstorms 71 21.7 68 20 90 90 SW 10 17 29.99 1016 10 16 0.01 0.13
5:52 pm 17:52 Cloudy with Nearby Thunderstorms 71 21.7 68 20 90 90 SW 10 17 29.99 1016 10 16 0.01 0.13
6:29 pm 18:29 Cloudy with Light Rain 70 21.1 68 20 93 93 WSW 8 13 30.00 1016 8 13 0.02 0.51
6:52 pm 18:52 Cloudy with Rain 70 21.1 68 20 93 93 SSW 8 13 29.98 1015 6 10 0.04 1.02
7:52 pm 19:52 Cloudy 71 21.7 69 20.6 93 93 S 9 15 29.94 1014 10 16 0.02 0.51
8:52 pm 20:52 Cloudy 72 22.2 71 21.7 97 97 SW 6 9 29.96 1015 10 16 0.00 0.00
9:12 pm 21:12 Cloudy 72 22.2 70 21.1 93 93 N 14 22 29.98 1015 10 16 0.00 0.00
9:30 pm 21:30 Cloudy 72 22.2 70 21.1 93 93 N 10 17 30.01 1016 10 16 0.00 0.00
9:52 pm 21:52 Cloudy 72 22.2 70 21.1 93 93 N 5 7 30.00 1016 10 16 0.00 0.00
10:52 pm 22:52 Cloudy 72 22.2 72 22.2 100 100 NNE 7 11 29.98 1015 10 16 0.00 0.00
11:52 pm 23:52 Mostly Cloudy 72 22.2 69 20.6 91 91 SSE 14 22 29.95 1014 10 16 0.00 0.00

Powered by AerisWeather